Location: Altamira
(10.5079°N, 66.8544°W)
Time: 08:46:34
(UTC+00:00)

Okean 1 - Pass Details

Date: 08 December 2021
Orbit: 538 x 552 km, 82.5° (Epoch: 24 January)

Event Time Altitude Azimuth Distance (km) Brightness Sun altitude
Rises 23:12:37 0° 183° (S) 2,716 7.2 -16.2°
Reaches altitude 10° 23:14:47 10° 183° (S) 1,821 6.3 -16.7°
Maximum altitude 23:18:47 88° 97° (E) 553 3.2 -17.6°
Enters shadow 23:21:56 16° 5° (N) 1,466 5.2 -18.3°
